NOAA 16 DEB, 41150

Orbit data source: Space-Track

NOAA 16 DEB, 41150 is space debris in SSO originally from a launch on Thu, 21 Sep 2000 UTC launched from the Air Force Western Test Range (AFWTR). Debris objects in space refer to the collection of defunct objects orbiting the Earth. Examples of debris include non-operational satellites, rocket bodies, and fragments generated from explosions, collisions, or faulty payload assembly.

Loading next visibility...
Identifier
41150, 2000-055CH
Orbit
SSO
Country
Flag of USUS
Related business
Manufacturer
Unknown
Mission
Spacecraft
Bus & Motor
Unknown
Mass
Unknown
Launch date (UTC)
2000-09-21 (25 years ago)
Launch vehicle
Unknown
Launch site
Air Force Western Test Range (AFWTR)
Object type
Payload
Rocket body
Debris
Shape & HBR
Unknown shape, 0.1 m
Radar Cross Section
Small (<0.1 m²)

Expand to show TLE details & history
Last TLE update: 3 days ago

TLE from 3 days ago
0 NOAA 16 DEB
1 41150U 00055CH  25345.28531409  .00060037  00000-0  86213-2 0  9990
2 41150  98.8078 153.8549 0027514 184.8442 175.2502 14.75902106524545
Epoch: 2025-12-11T06:50Z
TLE epoch observation values (Epoch: 2025-12-11T06:50:51.137Z)
Latitude
-0.00009°
Longitude
-29.10164°
Altitude
664.53 km
Speed
7.515 km/s
True Right ascension
10h 15m 25s
True Declination
0° 00' 00"
Sunlit
Object was in daylight at epoch
Visualization orbit readout
Latitude
Unknown
Longitude
Unknown
Altitude
Unknown
Speed
Unknown
Apparent Right ascension
Unknown
Apparent Declination
Unknown
Sunlit
N/A
Visualization observer readout
Local Sidereal Time
19:00:08
Azimuth
Unknown
Elevation
Unknown
Doppler factor
Unknown
Orbital elements
Apogee altitude
658.686 km
Perigee altitude
620.07 km
Semi-major axis
7,017.515 km
Eccentricity
0.00275
Inclination
98.8078°
RAAN
153.8549°
Arg. of periapsis
184.8442°
True anomaly
175.27622°
Mean anomaly
175.2502°
Eccentric anomaly
175.26322°
Mean motion
3.69205 °/min
Orbital period
97.51 mins
BSTAR
0.0086213
Loading maneuver chart data...
Computing Atmospheric mass density...
Loading historical data...
Loading historical data...
Loading historical data...
Loading historical data...
Loading historical data...
Loading historical data...
Loading historical data...

Documentation

Showing up to 5 results
|